Погода в Падстоу

Великобритания     50°32′26″N   4°56′13″W
темп.,
°C
ветер,
м/с
пор.,
м/с
влажн.,
%
обл.,
%
осадки,
мм/ч
давл.,
гПа
погр.,
м
18 апреля, вс
вс1801:00+5ююв2175100 0.0 102775
04:00+5вюв1173100 0.0 102764
07:00+5юв217294 0.0 102680
10:00+8ю226695 0.0 1026340
13:00+9зюз12575 0.0 1025499
16:00+10з125793 0.0 1024525
19:00+9с116385 0.0 1024222
22:00+7юв227490 0.0 102582
19 апреля, пн
пн1901:00+6ююв337099 0.0 102484
04:00+6юв337184 0.0 102294
07:00+6юв337397 0.0 102295
10:00+9юв346874 0.0 1022542
13:00+11ююв446466 0.0 1021528
16:00+11ююв446287 0.0 1020479
19:00+10ююв3373100 0.0 1020251
22:00+7юв2282100 0.0 102084
20 апреля, вт
вт2001:00+7юв2277100 0.0 102063
04:00+7юв1170100 0.0 101969
07:00+7всв1273100 0.0 101981
10:00+9св2271100 0.0 1020299
13:00+11ссв1263100 0.0 1020495
16:00+11с3370100 0.0 1019450
19:00+10с4579100 0.0 1020203
22:00+9св3382100 0.0 102073
21 апреля, ср
ср2101:00+8юв337991 0.0 102068
04:00+8вюв2279100 0.0 102070
07:00+8вюв228194 0.0 102074
10:00+11вюв347748 0.0 1021235
13:00+13вюв577550 0.9 1021404
16:00+13юв797337 0.8 1021436
19:00+12вюв58772 0.9 1021261
22:00+8в511864 0.0 1022308
22 апреля, чт
чт2201:00+8вюв714880 0.0 1023540
04:00+7вюв814840 0.0 1023460
07:00+6вюв914790 0.0 1022386
10:00+10вюв1114781 0.0 1023566
13:00+12вюв1013720 0.0 1022610
16:00+12вюв1114700 0.0 1021563
19:00+10вюв1017730 0.0 1020480
22:00+9вюв1320725 0.0 1019526